User: anonymous   Login
Location: Fort Wayne
(41.1310°N, 85.1290°W)
Time: 10:15:22
(UTC-05:00)
Language:

COSMOS 2406 - Orbit

View from above orbital plane
View from above orbital plane
View from above satellite
View from above satellite

Ground track
Ground track

The orbit data is extracted from the following two-line orbital elements,

1 28352U 04021A   16040.17271557 -.00000291  00000-0 -13464-3 0  9998
2 28352  71.0018  76.0519 0013380 133.3174 259.0569 14.11433904601142
Epoch (UTC): 09 February 2016 04:08:42
Eccentricity: 0.0013380
inclination: 71.0018°
perigee height: 845 km
apogee height: 864 km
right ascension of ascending node: 76.0519°
argument of perigee: 133.3174°
revolutions per day: 14.11433904
mean anomaly at epoch: 259.0569°
orbit number at epoch: 60114

The dashed part of the orbit path shows where the satellite is in the earth's shadow,  

DLR